| time (UTC) | temp F | wind direction | speed MPH | gust MPH | rain 1hr in | rain 24hr in | rain mn in | humidity % | barometer mb |
| 20260507145759 | 73 | 164 | 2.0 | 3.0 | 0.00 | 0.00 | 0.00 | 30 | 1014.9 |
| 20260507144759 | 72 | 146 | 0.0 | 4.0 | 0.00 | 0.00 | 0.00 | 31 | 1014.8 |
| 20260507144259 | 72 | 97 | 0.0 | 4.0 | 0.00 | 0.00 | 0.00 | 31 | 1014.9 |
| 20260507143759 | 72 | 111 | 1.0 | 4.0 | 0.00 | 0.00 | 0.00 | 31 | 1014.8 |
| 20260507143259 | 72 | 164 | 0.0 | 3.0 | 0.00 | 0.00 | 0.00 | 30 | 1014.8 |
| 20260507142759 | 72 | 146 | 0.0 | 2.0 | 0.00 | 0.00 | 0.00 | 32 | 1014.9 |
| 20260507142258 | 71 | 100 | 0.0 | 2.0 | 0.00 | 0.00 | 0.00 | 33 | 1014.9 |
| 20260507141758 | 71 | 100 | 0.0 | 2.0 | 0.00 | 0.00 | 0.00 | 32 | 1014.8 |
| 20260507141258 | 71 | 108 | 1.0 | 2.0 | 0.00 | 0.00 | 0.00 | 31 | 1014.9 |
| 20260507140258 | 70 | 103 | 0.0 | 1.0 | 0.00 | 0.00 | 0.00 | 32 | 1014.7 |
| 20260507135758 | 70 | 129 | 0.0 | 1.0 | 0.00 | 0.00 | 0.00 | 31 | 1014.6 |
| 20260507135258 | 69 | 213 | 1.0 | 1.0 | 0.00 | 0.00 | 0.00 | 32 | 1015.0 |
| 20260507134757 | 69 | 141 | 0.0 | 1.0 | 0.00 | 0.00 | 0.00 | 34 | 1015.0 |
| 20260507134257 | 68 | 100 | 0.0 | 1.0 | 0.00 | 0.00 | 0.00 | 35 | 1014.8 |
| 20260507133757 | 67 | 61 | 0.0 | 1.0 | 0.00 | 0.00 | 0.00 | 36 | 1014.7 |
| 20260507133257 | 65 | 60 | 1.0 | 1.0 | 0.00 | 0.00 | 0.00 | 40 | 1014.6 |
| 20260507132757 | 64 | 61 | 0.0 | 2.0 | 0.00 | 0.00 | 0.00 | 41 | 1014.4 |
| 20260507132256 | 62 | 71 | 0.0 | 3.0 | 0.00 | 0.00 | 0.00 | 44 | 1014.2 |
| 20260507131757 | 61 | 33 | 1.0 | 3.0 | 0.00 | 0.00 | 0.00 | 46 | 1014.2 |
| 20260507130756 | 60 | 53 | 0.0 | 1.0 | 0.00 | 0.00 | 0.00 | 49 | 1014.0 |
| 20260507130256 | 60 | 53 | 0.0 | 0.0 | 0.00 | 0.00 | 0.00 | 47 | 1014.1 |
| 20260507125756 | 60 | 53 | 0.0 | 2.0 | 0.00 | 0.00 | 0.00 | 47 | 1014.1 |
| 20260507125256 | 60 | 54 | 0.0 | 2.0 | 0.00 | 0.00 | 0.00 | 46 | 1014.2 |
| 20260507124756 | 60 | 33 | 1.0 | 1.0 | 0.00 | 0.00 | 0.00 | 48 | 1014.3 |
| 20260507124255 | 61 | 5 | 0.0 | 1.0 | 0.00 | 0.00 | 0.00 | 45 | 1014.2 |
| 20260507123755 | 61 | 5 | 0.0 | 1.0 | 0.00 | 0.00 | 0.00 | 45 | 1014.2 |
| 20260507122755 | 61 | 104 | 1.0 | 1.0 | 0.00 | 0.00 | 0.00 | 45 | 1014.1 |
| 20260507122255 | 61 | 105 | 0.0 | 1.0 | 0.00 | 0.00 | 0.00 | 45 | 1014.1 |
| 20260507121755 | 61 | 96 | 0.0 | 1.0 | 0.00 | 0.00 | 0.00 | 47 | 1014.1 |
| 20260507121254 | 62 | 93 | 0.0 | 1.0 | 0.00 | 0.00 | 0.00 | 43 | 1014.2 |
| 20260507120754 | 62 | 93 | 0.0 | 1.0 | 0.00 | 0.00 | 0.00 | 44 | 1014.2 |
| 20260507120254 | 63 | 170 | 0.0 | 1.0 | 0.00 | 0.00 | 0.00 | 43 | 1014.1 |
| 20260507115754 | 62 | 32 | 0.0 | 2.0 | 0.00 | 0.00 | 0.00 | 41 | 1014.2 |
| 20260507115254 | 61 | 111 | 1.0 | 2.0 | 0.00 | 0.00 | 0.00 | 45 | 1014.1 |
| 20260507114254 | 61 | 70 | 0.0 | 1.0 | 0.00 | 0.00 | 0.00 | 44 | 1014.0 |
| 20260507113753 | 62 | 82 | 0.0 | 2.0 | 0.00 | 0.00 | 0.00 | 45 | 1014.1 |
| 20260507113253 | 62 | 82 | 0.0 | 2.0 | 0.00 | 0.00 | 0.00 | 43 | 1014.3 |
| 20260507112753 | 62 | 81 | 1.0 | 2.0 | 0.00 | 0.00 | 0.00 | 43 | 1014.2 |
| 20260507112253 | 62 | 91 | 0.0 | 2.0 | 0.00 | 0.00 | 0.00 | 44 | 1014.3 |
| 20260507111753 | 62 | 73 | 0.0 | 3.0 | 0.00 | 0.00 | 0.00 | 43 | 1014.3 |
| 20260507111253 | 62 | 205 | 0.0 | 5.0 | 0.00 | 0.00 | 0.00 | 42 | 1014.2 |
| 20260507110753 | 62 | 132 | 1.0 | 5.0 | 0.00 | 0.00 | 0.00 | 43 | 1014.2 |
| 20260507110252 | 63 | 297 | 0.0 | 1.0 | 0.00 | 0.00 | 0.00 | 40 | 1014.1 |
| 20260507105253 | 63 | 293 | 0.0 | 2.0 | 0.00 | 0.00 | 0.00 | 41 | 1014.3 |
| 20260507104752 | 63 | 316 | 0.0 | 1.0 | 0.00 | 0.00 | 0.00 | 40 | 1014.2 |
| 20260507104252 | 63 | 65 | 0.0 | 0.0 | 0.00 | 0.00 | 0.00 | 44 | 1014.2 |
| 20260507103752 | 63 | 39 | 0.0 | 1.0 | 0.00 | 0.00 | 0.00 | 40 | 1014.2 |
| 20260507103252 | 63 | 39 | 0.0 | 1.0 | 0.00 | 0.00 | 0.00 | 45 | 1014.2 |
| 20260507102251 | 63 | 32 | 0.0 | 1.0 | 0.00 | 0.00 | 0.00 | 42 | 1014.4 |
| 20260507101751 | 64 | 32 | 0.0 | 1.0 | 0.00 | 0.00 | 0.00 | 40 | 1014.5 |
| 20260507101251 | 64 | 32 | 0.0 | 1.0 | 0.00 | 0.00 | 0.00 | 38 | 1014.5 |
| 20260507100751 | 65 | 27 | 0.0 | 2.0 | 0.00 | 0.00 | 0.00 | 36 | 1014.6 |
| 20260507095751 | 65 | 7 | 0.0 | 3.0 | 0.00 | 0.00 | 0.00 | 35 | 1014.8 |
| 20260507095250 | 65 | 9 | 2.0 | 3.0 | 0.00 | 0.00 | 0.00 | 35 | 1014.8 |
| 20260507094751 | 65 | 340 | 3.0 | 3.0 | 0.00 | 0.00 | 0.00 | 35 | 1014.7 |
| 20260507094250 | 65 | 325 | 1.0 | 3.0 | 0.00 | 0.00 | 0.00 | 35 | 1014.9 |
| 20260507093250 | 65 | 327 | 0.0 | 3.0 | 0.00 | 0.00 | 0.00 | 35 | 1015.0 |
| 20260507092750 | 65 | 323 | 2.0 | 3.0 | 0.00 | 0.00 | 0.00 | 36 | 1015.0 |
| 20260507092250 | 64 | 293 | 0.0 | 2.0 | 0.00 | 0.00 | 0.00 | 37 | 1015.1 |
| 20260507091750 | 63 | 296 | 0.0 | 1.0 | 0.00 | 0.00 | 0.00 | 39 | 1014.9 |
| 20260507091250 | 62 | 329 | 0.0 | 1.0 | 0.00 | 0.00 | 0.00 | 42 | 1015.0 |
| 20260507090249 | 61 | 351 | 0.0 | 1.0 | 0.00 | 0.00 | 0.00 | 52 | 1014.9 |
| 20260507085749 | 61 | 359 | 0.0 | 1.0 | 0.00 | 0.00 | 0.00 | 51 | 1014.9 |
| 20260507085249 | 61 | 359 | 0.0 | 0.0 | 0.00 | 0.00 | 0.00 | 54 | 1014.9 |
| 20260507084749 | 61 | 359 | 0.0 | 0.0 | 0.00 | 0.00 | 0.00 | 56 | 1015.0 |
| 20260507084249 | 61 | 359 | 0.0 | 0.0 | 0.00 | 0.00 | 0.00 | 54 | 1015.0 |
| 20260507083749 | 61 | 358 | 0.0 | 0.0 | 0.00 | 0.00 | 0.00 | 55 | 1015.0 |
| 20260507082748 | 61 | 359 | 0.0 | 1.0 | 0.00 | 0.00 | 0.00 | 55 | 1015.1 |
| 20260507082248 | 62 | 358 | 0.0 | 1.0 | 0.00 | 0.00 | 0.00 | 52 | 1015.2 |
| 20260507081748 | 62 | 101 | 0.0 | 0.0 | 0.00 | 0.00 | 0.00 | 51 | 1015.2 |
| 20260507080747 | 62 | 148 | 0.0 | 0.0 | 0.00 | 0.00 | 0.00 | 50 | 1015.3 |
| 20260507080248 | 64 | 322 | 0.0 | 0.0 | 0.00 | 0.00 | 0.00 | 44 | 1015.4 |
| 20260507072746 | 64 | 322 | 0.0 | 0.0 | 0.00 | 0.00 | 0.00 | 41 | 1015.3 |
| 20260507072247 | 64 | 322 | 0.0 | 0.0 | 0.00 | 0.00 | 0.00 | 42 | 1015.3 |
| 20260507071747 | 64 | 322 | 0.0 | 0.0 | 0.00 | 0.00 | 0.00 | 41 | 1015.3 |
| 20260507071316 | 65 | 322 | 0.0 | 0.0 | 0.00 | 0.00 | 0.00 | 43 | 1015.5 |
| 20260507070746 | 65 | 322 | 0.0 | 0.0 | 0.00 | 0.00 | 0.00 | 43 | 1015.5 |
| 20260507070316 | 65 | 322 | 0.0 | 0.0 | 0.00 | 0.00 | 0.00 | 42 | 1015.5 |
| 20260507065816 | 66 | 322 | 0.0 | 0.0 | 0.00 | 0.00 | 0.00 | 39 | 1015.5 |
| 20260507064816 | 66 | 322 | 0.0 | 1.0 | 0.00 | 0.00 | 0.00 | 42 | 1015.4 |
| 20260507063815 | 66 | 356 | 0.0 | 1.0 | 0.00 | 0.00 | 0.00 | 39 | 1015.3 |
| 20260507063315 | 66 | 356 | 0.0 | 1.0 | 0.00 | 0.00 | 0.00 | 42 | 1015.4 |
| 20260507062815 | 67 | 356 | 0.0 | 0.0 | 0.00 | 0.00 | 0.00 | 39 | 1015.4 |
| 20260507062314 | 68 | 356 | 0.0 | 0.0 | 0.00 | 0.00 | 0.00 | 39 | 1015.5 |
| 20260507061815 | 69 | 356 | 0.0 | 0.0 | 0.00 | 0.00 | 0.00 | 35 | 1015.5 |
| 20260507061314 | 69 | 356 | 0.0 | 0.0 | 0.00 | 0.00 | 0.00 | 35 | 1015.5 |
| 20260507060814 | 70 | 356 | 0.0 | 1.0 | 0.00 | 0.00 | 0.00 | 33 | 1015.7 |
| 20260507060314 | 69 | 356 | 0.0 | 2.0 | 0.00 | 0.00 | 0.00 | 32 | 1015.4 |
| 20260507055814 | 68 | 347 | 0.0 | 2.0 | 0.00 | 0.00 | 0.00 | 33 | 1015.3 |
| 20260507054813 | 67 | 99 | 0.0 | 1.0 | 0.00 | 0.00 | 0.00 | 43 | 1015.3 |
| 20260507053313 | 67 | 99 | 0.0 | 1.0 | 0.00 | 0.00 | 0.00 | 44 | 1015.4 |
| 20260507052813 | 67 | 99 | 0.0 | 1.0 | 0.00 | 0.00 | 0.00 | 42 | 1015.3 |
| 20260507052313 | 68 | 99 | 0.0 | 1.0 | 0.00 | 0.00 | 0.00 | 38 | 1015.4 |
| 20260507051812 | 68 | 99 | 0.0 | 1.0 | 0.00 | 0.00 | 0.00 | 38 | 1015.3 |
| 20260507051312 | 68 | 99 | 0.0 | 1.0 | 0.00 | 0.00 | 0.00 | 39 | 1015.3 |
| 20260507050812 | 68 | 99 | 0.0 | 1.0 | 0.00 | 0.00 | 0.00 | 41 | 1015.3 |
| 20260507050312 | 68 | 99 | 0.0 | 1.0 | 0.00 | 0.00 | 0.00 | 42 | 1015.3 |
| 20260507045812 | 67 | 99 | 1.0 | 1.0 | 0.00 | 0.00 | 0.00 | 42 | 1015.2 |
| 20260507044812 | 68 | 99 | 0.0 | 1.0 | 0.00 | 0.00 | 0.00 | 44 | 1015.2 |
| 20260507043811 | 68 | 99 | 0.0 | 1.0 | 0.00 | 0.00 | 0.00 | 44 | 1015.1 |
| 20260507043311 | 68 | 99 | 0.0 | 0.0 | 0.00 | 0.00 | 0.00 | 44 | 1015.1 |
| 20260507042811 | 68 | 99 | 0.0 | 0.0 | 0.00 | 0.00 | 0.00 | 43 | 1015.0 |
| 20260507042311 | 68 | 99 | 0.0 | 0.0 | 0.00 | 0.00 | 0.00 | 43 | 1015.0 |
| 20260507041811 | 68 | 99 | 0.0 | 0.0 | 0.00 | 0.00 | 0.00 | 46 | 1015.0 |
| 20260507041311 | 68 | 99 | 0.0 | 0.0 | 0.00 | 0.00 | 0.00 | 45 | 1014.9 |
| 20260507040811 | 69 | 99 | 0.0 | 1.0 | 0.00 | 0.00 | 0.00 | 45 | 1014.9 |
| 20260507040311 | 69 | 99 | 0.0 | 1.0 | 0.00 | 0.00 | 0.00 | 44 | 1014.8 |
| 20260507030309 | 71 | 219 | 0.0 | 0.0 | 0.00 | 0.00 | 0.00 | 39 | 1014.1 |
| 20260507025808 | 71 | 219 | 0.0 | 0.0 | 0.00 | 0.00 | 0.00 | 38 | 1014.0 |
| 20260507025308 | 72 | 219 | 0.0 | 0.0 | 0.00 | 0.00 | 0.00 | 36 | 1013.8 |
| 20260507024808 | 73 | 219 | 0.0 | 0.0 | 0.00 | 0.00 | 0.00 | 33 | 1013.9 |
| 20260507024308 | 73 | 219 | 0.0 | 0.0 | 0.00 | 0.00 | 0.00 | 32 | 1013.7 |
| 20260507023308 | 75 | 219 | 0.0 | 0.0 | 0.00 | 0.00 | 0.00 | 30 | 1013.8 |
| 20260507022808 | 75 | 219 | 0.0 | 1.0 | 0.00 | 0.00 | 0.00 | 27 | 1013.6 |
| 20260507022308 | 76 | 219 | 0.0 | 1.0 | 0.00 | 0.00 | 0.00 | 26 | 1013.7 |
| 20260507021808 | 77 | 219 | 0.0 | 1.0 | 0.00 | 0.00 | 0.00 | 26 | 1013.5 |
| 20260507021307 | 77 | 219 | 0.0 | 2.0 | 0.00 | 0.00 | 0.00 | 24 | 1013.5 |
| 20260507020807 | 78 | 224 | 0.0 | 2.0 | 0.00 | 0.00 | 0.00 | 24 | 1013.8 |
| 20260507020307 | 79 | 228 | 0.0 | 2.0 | 0.00 | 0.00 | 0.00 | 23 | 1013.6 |
| 20260507015807 | 79 | 228 | 0.0 | 4.0 | 0.00 | 0.00 | 0.00 | 23 | 1013.6 |
| 20260507015307 | 80 | 207 | 0.0 | 5.0 | 0.00 | 0.00 | 0.00 | 22 | 1013.4 |
| 20260507014806 | 81 | 216 | 1.0 | 5.0 | 0.00 | 0.00 | 0.00 | 21 | 1013.6 |
| 20260507014307 | 81 | 238 | 0.0 | 3.0 | 0.00 | 0.00 | 0.00 | 22 | 1013.5 |
| 20260507013806 | 81 | 235 | 0.0 | 3.0 | 0.00 | 0.00 | 0.00 | 21 | 1013.5 |
| 20260507013306 | 81 | 231 | 0.0 | 2.0 | 0.00 | 0.00 | 0.00 | 21 | 1013.6 |
| 20260507012307 | 82 | 276 | 0.0 | 3.0 | 0.00 | 0.00 | 0.00 | 21 | 1013.6 |
| 20260507011806 | 82 | 221 | 3.0 | 4.0 | 0.00 | 0.00 | 0.00 | 21 | 1013.6 |
| 20260507011305 | 82 | 243 | 1.0 | 4.0 | 0.00 | 0.00 | 0.00 | 21 | 1013.7 |
| 20260507010805 | 82 | 192 | 1.0 | 6.0 | 0.00 | 0.00 | 0.00 | 21 | 1013.5 |
| 20260507005805 | 82 | 283 | 0.0 | 7.0 | 0.00 | 0.00 | 0.00 | 21 | 1013.6 |
| 20260507005306 | 82 | 289 | 1.0 | 7.0 | 0.00 | 0.00 | 0.00 | 21 | 1012.9 |
| 20260507004805 | 83 | 219 | 4.0 | 4.0 | 0.00 | 0.00 | 0.00 | 20 | 1013.0 |
| 20260507003804 | 82 | 150 | 1.0 | 5.0 | 0.00 | 0.00 | 0.00 | 21 | 1012.8 |
| 20260507003304 | 82 | 334 | 0.0 | 5.0 | 0.00 | 0.00 | 0.00 | 20 | 1012.8 |
| 20260507002805 | 83 | 264 | 2.0 | 5.0 | 0.00 | 0.00 | 0.00 | 20 | 1013.0 |
| 20260507002306 | 83 | 200 | 3.0 | 4.0 | 0.00 | 0.00 | 0.00 | 20 | 1013.0 |
| 20260507001804 | 82 | 205 | 0.0 | 5.0 | 0.00 | 0.00 | 0.00 | 20 | 1012.8 |
| 20260507001304 | 83 | 242 | 0.0 | 6.0 | 0.00 | 0.00 | 0.00 | 20 | 1012.9 |
| 20260507000804 | 83 | 223 | 2.0 | 6.0 | 0.00 | 0.00 | 0.00 | 21 | 1013.0 |
| 20260506230802 | 82 | 265 | 0.0 | 4.0 | 0.00 | 0.00 | 0.00 | 21 | 1013.2 |
| 20260506230302 | 82 | 75 | 0.0 | 9.0 | 0.00 | 0.00 | 0.00 | 21 | 1013.2 |
| 20260506225802 | 82 | 299 | 1.0 | 9.0 | 0.00 | 0.00 | 0.00 | 21 | 1013.3 |
| 20260506225305 | 83 | 257 | 3.0 | 7.0 | 0.00 | 0.00 | 0.00 | 21 | 1013.5 |
| 20260506224301 | 82 | 302 | 7.0 | 10.0 | 0.00 | 0.00 | 0.00 | 21 | 1013.7 |
| 20260506223801 | 82 | 287 | 7.0 | 10.0 | 0.00 | 0.00 | 0.00 | 21 | 1013.6 |
| 20260506223301 | 82 | 257 | 3.0 | 8.0 | 0.00 | 0.00 | 0.00 | 21 | 1013.7 |
| 20260506221801 | 82 | 249 | 2.0 | 8.0 | 0.00 | 0.00 | 0.00 | 21 | 1013.9 |
| 20260506221300 | 81 | 333 | 2.0 | 8.0 | 0.00 | 0.00 | 0.00 | 21 | 1013.9 |
| 20260506220800 | 81 | 317 | 2.0 | 7.0 | 0.00 | 0.00 | 0.00 | 21 | 1013.9 |
| 20260506220300 | 82 | 280 | 2.0 | 7.0 | 0.00 | 0.00 | 0.00 | 20 | 1014.2 |
| 20260506215800 | 82 | 269 | 4.0 | 4.0 | 0.00 | 0.00 | 0.00 | 21 | 1014.2 |
| 20260506215300 | 82 | 304 | 1.0 | 3.0 | 0.00 | 0.00 | 0.00 | 21 | 1014.3 |
| 20260506213759 | 81 | 151 | 1.0 | 8.0 | 0.00 | 0.00 | 0.00 | 21 | 1014.6 |
| 20260506212759 | 81 | 310 | 2.0 | 6.0 | 0.00 | 0.00 | 0.00 | 22 | 1014.7 |
| 20260506212259 | 81 | 302 | 4.0 | 6.0 | 0.00 | 0.00 | 0.00 | 22 | 1014.6 |
| 20260506211759 | 81 | 286 | 3.0 | 6.0 | 0.00 | 0.00 | 0.00 | 22 | 1014.8 |
| 20260506211258 | 80 | 290 | 3.0 | 4.0 | 0.00 | 0.00 | 0.00 | 22 | 1014.8 |
| 20260506210759 | 80 | 349 | 2.0 | 5.0 | 0.00 | 0.00 | 0.00 | 22 | 1014.8 |
| 20260506210258 | 80 | 297 | 0.0 | 7.0 | 0.00 | 0.00 | 0.00 | 22 | 1015.0 |
| 20260506204758 | 80 | 322 | 1.0 | 9.0 | 0.00 | 0.00 | 0.00 | 23 | 1015.4 |
| 20260506203758 | 79 | 299 | 5.0 | 8.0 | 0.00 | 0.00 | 0.00 | 23 | 1015.5 |
| 20260506203257 | 79 | 88 | 1.0 | 8.0 | 0.00 | 0.00 | 0.00 | 23 | 1015.5 |
| 20260506202757 | 80 | 317 | 0.0 | 6.0 | 0.00 | 0.00 | 0.00 | 23 | 1015.5 |
| 20260506202257 | 79 | 299 | 0.0 | 7.0 | 0.00 | 0.00 | 0.00 | 24 | 1015.6 |
| 20260506201757 | 80 | 282 | 4.0 | 7.0 | 0.00 | 0.00 | 0.00 | 23 | 1015.7 |
| 20260506201257 | 79 | 283 | 3.0 | 6.0 | 0.00 | 0.00 | 0.00 | 24 | 1015.7 |
| 20260506200757 | 78 | 272 | 2.0 | 6.0 | 0.00 | 0.00 | 0.00 | 24 | 1015.7 |
| 20260506200256 | 79 | 220 | 2.0 | 6.0 | 0.00 | 0.00 | 0.00 | 25 | 1015.9 |
| 20260506195256 | 79 | 292 | 2.0 | 11.0 | 0.00 | 0.00 | 0.00 | 25 | 1015.9 |
| 20260506194756 | 78 | 231 | 3.0 | 8.0 | 0.00 | 0.00 | 0.00 | 26 | 1015.9 |
| 20260506194256 | 77 | 321 | 2.0 | 8.0 | 0.00 | 0.00 | 0.00 | 25 | 1015.9 |
| 20260506193756 | 77 | 302 | 0.0 | 7.0 | 0.00 | 0.00 | 0.00 | 25 | 1016.1 |
| 20260506192756 | 77 | 208 | 2.0 | 6.0 | 0.00 | 0.00 | 0.00 | 26 | 1016.2 |
| 20260506192255 | 77 | 274 | 2.0 | 6.0 | 0.00 | 0.00 | 0.00 | 26 | 1016.2 |
| 20260506191755 | 78 | 247 | 1.0 | 5.0 | 0.00 | 0.00 | 0.00 | 27 | 1016.2 |
| 20260506190755 | 76 | 304 | 4.0 | 9.0 | 0.00 | 0.00 | 0.00 | 27 | 1016.2 |
| 20260506190255 | 77 | 271 | 7.0 | 8.0 | 0.00 | 0.00 | 0.00 | 27 | 1016.5 |
| 20260506185755 | 77 | 224 | 2.0 | 8.0 | 0.00 | 0.00 | 0.00 | 27 | 1016.4 |
| 20260506185255 | 77 | 303 | 1.0 | 8.0 | 0.00 | 0.00 | 0.00 | 27 | 1016.5 |
| 20260506184755 | 77 | 234 | 4.0 | 10.0 | 0.00 | 0.00 | 0.00 | 27 | 1016.5 |
| 20260506184255 | 77 | 311 | 2.0 | 10.0 | 0.00 | 0.00 | 0.00 | 26 | 1016.6 |
| 20260506183754 | 76 | 23 | 1.0 | 6.0 | 0.00 | 0.00 | 0.00 | 27 | 1016.7 |
| 20260506182254 | 75 | 295 | 0.0 | 6.0 | 0.00 | 0.00 | 0.00 | 28 | 1016.9 |
| 20260506181754 | 76 | 209 | 3.0 | 5.0 | 0.00 | 0.00 | 0.00 | 28 | 1016.9 |
| 20260506181253 | 76 | 276 | 3.0 | 6.0 | 0.00 | 0.00 | 0.00 | 28 | 1017.0 |
| 20260506180754 | 76 | 237 | 1.0 | 6.0 | 0.00 | 0.00 | 0.00 | 29 | 1017.1 |
| 20260506180253 | 75 | 217 | 1.0 | 4.0 | 0.00 | 0.00 | 0.00 | 28 | 1017.0 |
| 20260506175753 | 75 | 123 | 0.0 | 4.0 | 0.00 | 0.00 | 0.00 | 30 | 1017.0 |
| 20260506175253 | 74 | 200 | 2.0 | 5.0 | 0.00 | 0.00 | 0.00 | 30 | 1016.8 |
| 20260506174753 | 74 | 239 | 2.0 | 6.0 | 0.00 | 0.00 | 0.00 | 31 | 1016.9 |
| 20260506174252 | 74 | 321 | 3.0 | 6.0 | 0.00 | 0.00 | 0.00 | 31 | 1017.0 |
| 20260506173252 | 73 | 216 | 1.0 | 4.0 | 0.00 | 0.01 | 0.00 | 31 | 1016.9 |
| 20260506172752 | 73 | 295 | 0.0 | 6.0 | 0.00 | 0.01 | 0.00 | 31 | 1016.8 |
| 20260506172252 | 72 | 237 | 1.0 | 7.0 | 0.00 | 0.01 | 0.00 | 32 | 1016.7 |
| 20260506171752 | 72 | 302 | 5.0 | 7.0 | 0.00 | 0.01 | 0.00 | 33 | 1016.7 |
| 20260506171251 | 72 | 321 | 2.0 | 4.0 | 0.00 | 0.01 | 0.00 | 32 | 1016.7 |
| 20260506170252 | 72 | 290 | 3.0 | 4.0 | 0.00 | 0.01 | 0.00 | 34 | 1016.6 |
| 20260506165751 | 72 | 282 | 1.0 | 5.0 | 0.00 | 0.01 | 0.00 | 32 | 1016.5 |
| 20260506165251 | 72 | 163 | 1.0 | 5.0 | 0.00 | 0.01 | 0.00 | 34 | 1016.9 |
| 20260506164751 | 72 | 243 | 2.0 | 4.0 | 0.00 | 0.01 | 0.00 | 33 | 1016.8 |
| 20260506164251 | 71 | 321 | 2.0 | 4.0 | 0.00 | 0.01 | 0.00 | 33 | 1016.6 |
| 20260506163750 | 71 | 206 | 2.0 | 4.0 | 0.00 | 0.01 | 0.00 | 33 | 1016.6 |
| 20260506163251 | 71 | 279 | 0.0 | 4.0 | 0.00 | 0.01 | 0.00 | 33 | 1016.6 |
| 20260506162751 | 71 | 234 | 1.0 | 4.0 | 0.00 | 0.01 | 0.00 | 35 | 1016.6 |
| 20260506162250 | 71 | 139 | 2.0 | 4.0 | 0.00 | 0.01 | 0.00 | 34 | 1016.5 |
| 20260506161750 | 70 | 198 | 1.0 | 3.0 | 0.00 | 0.01 | 0.00 | 36 | 1016.6 |
| 20260506161250 | 70 | 75 | 2.0 | 3.0 | 0.00 | 0.01 | 0.00 | 35 | 1016.5 |
| 20260506160249 | 70 | 71 | 0.0 | 4.0 | 0.00 | 0.01 | 0.00 | 35 | 1016.6 |
| 20260506155249 | 69 | 46 | 0.0 | 3.0 | 0.00 | 0.01 | 0.00 | 36 | 1016.6 |
| 20260506154249 | 69 | 111 | 0.0 | 3.0 | 0.00 | 0.01 | 0.00 | 36 | 1016.7 |
| 20260506153749 | 69 | 120 | 1.0 | 3.0 | 0.00 | 0.01 | 0.00 | 37 | 1016.7 |
| 20260506153249 | 68 | 5 | 0.0 | 2.0 | 0.00 | 0.01 | 0.00 | 37 | 1016.6 |
| 20260506152749 | 68 | 23 | 0.0 | 4.0 | 0.00 | 0.01 | 0.00 | 38 | 1016.6 |
| 20260506152249 | 68 | 113 | 1.0 | 4.0 | 0.00 | 0.01 | 0.00 | 37 | 1016.5 |
| 20260506151749 | 68 | 96 | 3.0 | 3.0 | 0.00 | 0.01 | 0.00 | 37 | 1016.5 |
| 20260506151248 | 68 | 222 | 1.0 | 2.0 | 0.00 | 0.01 | 0.00 | 38 | 1016.7 |
| 20260506150748 | 68 | 90 | 1.0 | 2.0 | 0.00 | 0.01 | 0.00 | 38 | 1016.7 |